Temp
15 15 15 14 14 14 13 13 12 12 11 11 11 11 11 11 10 10 9 9 8 7 7 7 6 6 6 6 7 8 8 7 7 8 9 9 8 8 7 7 7 7 8
15 15 15 14 15 14 13 12 12 11 11 10 10 10 10 10 9 8 8 8 7 6 6 6 6 6 6 6 6 6 7 7 6 5 6 6 7 8 8 8 8 8 8
15 15 15 14 14 13 12 12 11 11 10 10 10 10 10 9 8 8 7 7 6 6 6 6 6 5 6 5 5 6 6 6 5 5 4 4 4 5 6 7 7 7 7
13 14 14 14 13 12 11 11 11 10 10 10 10 9 9 9 8 8 8 7 6 6 5 5 5 5 6 6 5 5 5 5 5 5 5 4 4 3 4 7 7 7 7
13 13 13 13 12 11 11 11 11 10 10 10 9 9 9 8 7 7 7 7 5 5 5 6 6 6 6 5 5 5 5 5 5 5 5 6 6 5 4 5 6 7 7
12 12 12 12 11 11 11 11 10 10 10 9 9 9 9 8 7 7 7 6 5 6 5 5 6 6 5 5 4 5 5 5 5 5 5 5 5 5 4 5 5 5 7
12 12 11 11 11 11 11 11 11 11 10 9 9 9 9 8 7 7 7 7 6 6 7 6 6 6 5 5 4 5 5 5 5 5 5 5 5 5 5 5 5 5 7
11 11 11 11 11 11 11 11 11 11 10 9 9 8 9 9 8 7 7 7 7 6 6 6 6 6 6 5 4 4 5 5 5 5 5 5 5 6 5 5 5 5 5
11 11 11 11 11 11 11 11 11 11 10 10 9 9 8 8 8 7 7 7 7 7 7 6 6 6 6 5 4 4 5 6 6 6 6 6 6 5 5 5 5 5 5
11 11 11 11 11 11 11 11 10 10 10 10 9 9 9 8 8 8 8 7 7 7 7 7 6 6 6 6 5 4 4 6 6 6 6 6 6 5 5 5 5 5 5
10 11 11 11 11 11 11 10 10 10 10 9 9 9 9 9 9 8 7 7 8 7 8 7 7 7 7 6 5 5 5 4 6 6 6 6 6 6 6 5 5 5 5
10 10 10 10 10 10 10 10 10 10 9 9 9 9 9 9 8 9 8 8 8 7 8 8 8 7 7 6 6 6 6 5 7 6 6 6 6 6 6 6 5 5 5
9 9 9 9 10 10 9 9 9 9 9 9 9 9 9 8 8 8 8 8 8 7 7 8 8 7 7 6 6 6 6 6 7 6 5 3 4 3 3 3 4 5 5
8 8 9 9 9 9 9 9 9 8 9 9 9 9 9 8 8 8 8 8 8 8 8 8 7 7 7 6 6 6 6 6 6 6 5 3 2 2 2 2 2 3 3
8 8 8 8 9 9 9 9 8 8 8 8 9 9 9 8 7 7 7 8 8 8 7 8 7 7 7 6 6 6 6 6 6 5 5 5 4 3 1 1 2 2 2
8 8 8 8 8 7 7 8 7 8 8 8 8 8 8 8 8 7 7 7 7 7 7 7 7 7 6 6 6 6 6 5 6 6 5 5 4 4 3 2 1 1 1
7 7 7 7 7 6 6 6 7 7 7 7 8 7 7 7 7 7 7 7 7 7 7 7 7 7 6 6 6 6 6 6 5 5 5 5 4 4 4 3 3 4 2
6 6 6 6 6 6 6 6 6 6 6 7 7 7 7 7 7 7 7 7 7 7 7 7 7 6 7 6 5 5 5 5 6 5 5 5 5 4 4 4 4 3 3
5 5 5 5 5 5 5 6 6 6 6 6 6 6 6 7 7 7 6 6 6 7 7 7 7 6 7 6 5 5 5 5 5 5 5 4 4 4 4 4 4 4 4
4 4 5 5 5 5 5 5 5 5 5 5 6 6 6 6 6 6 6 6 6 6 6 6 6 6 6 5 5 4 4 4 5 5 4 4 4 4 3 3 3 3 3
4 4 4 4 4 4 4 5 4 4 4 4 5 5 5 5 5 5 6 6 6 5 5 5 6 5 5 5 4 4 3 3 4 4 5 4 3 3 3 3 3 3 2
4 4 4 4 4 4 4 4 4 4 4 4 4 4 4 4 5 5 5 5 5 5 5 4 4 4 4 4 4 3 3 3 3 4 4 4 3 3 3 3 3 2 2
4 4 4 4 3 3 3 3 3 4 4 4 4 3 3 4 4 4 5 5 5 4 4 3 3 3 3 2 2 2 2 2 2 3 3 3 3 2 2 2 2 2 2
4 4 4 4 4 4 3 3 3 3 3 3 3 3 3 3 3 3 3 3 3 3 3 3 3 3 2 2 2 2 1 1 1 2 2 2 2 2 2 2 2 2 1
4 4 4 4 4 4 4 3 3 3 3 3 3 3 3 2 3 3 2 2 2 2 2 2 2 2 2 2 1 1 1 1 1 1 1 1 1 1 1 1 1 1 1
3 3 3 3 4 4 4 4 4 3 3 3 3 2 2 2 2 3 3 2 2 2 2 2 2 2 2 2 2 2 1 1 1 1 1 1 1 1 0 0 0 0 -0
Height
1535 1536 1537 1538 1539 1540 1541 1541 1541 1539 1538 1536 1535 1533 1531 1528 1525 1522 1518 1515 1512 1510 1508 1506 1505 1505 1505 1504 1502 1501 1499 1497 1493 1490 1488 1486 1485 1484 1485 1484 1483 1483 1482
1531 1533 1534 1535 1536 1537 1539 1539 1538 1537 1535 1533 1531 1530 1527 1524 1521 1518 1515 1513 1511 1509 1508 1507 1506 1505 1504 1503 1502 1499 1497 1495 1493 1490 1486 1484 1485 1483 1482 1482 1481 1480 1479
1526 1528 1531 1532 1533 1535 1537 1538 1536 1534 1533 1531 1529 1527 1524 1522 1519 1517 1514 1511 1510 1509 1508 1507 1506 1505 1503 1502 1501 1499 1497 1493 1492 1491 1490 1487 1486 1481 1478 1479 1478 1476 1475
1524 1526 1528 1529 1531 1534 1535 1535 1534 1532 1531 1529 1526 1524 1521 1519 1516 1514 1512 1510 1509 1508 1507 1506 1505 1504 1503 1501 1500 1498 1495 1493 1492 1491 1489 1488 1486 1484 1480 1477 1475 1474 1472
1525 1526 1527 1528 1530 1532 1533 1533 1531 1529 1528 1526 1525 1522 1519 1517 1514 1512 1510 1509 1507 1507 1506 1505 1504 1503 1501 1500 1498 1496 1495 1492 1491 1489 1487 1486 1484 1482 1481 1477 1474 1471 1470
1527 1527 1527 1528 1530 1531 1530 1530 1529 1527 1526 1524 1522 1519 1517 1514 1513 1510 1508 1506 1505 1504 1504 1503 1502 1501 1499 1498 1496 1494 1493 1492 1490 1489 1487 1485 1483 1481 1480 1478 1476 1472 1469
1527 1527 1528 1528 1528 1529 1528 1528 1526 1524 1523 1521 1519 1517 1514 1512 1510 1508 1507 1504 1503 1502 1501 1500 1500 1499 1496 1495 1494 1492 1491 1490 1489 1487 1486 1484 1482 1480 1479 1478 1475 1472 1468
1528 1528 1528 1527 1526 1526 1526 1525 1523 1521 1520 1518 1516 1514 1511 1509 1508 1506 1504 1502 1501 1500 1499 1498 1496 1494 1494 1493 1491 1490 1488 1487 1486 1485 1483 1482 1480 1478 1478 1477 1475 1472 1470
1528 1527 1527 1525 1524 1524 1523 1522 1520 1518 1516 1514 1512 1510 1508 1505 1505 1504 1502 1500 1499 1497 1496 1495 1494 1491 1491 1489 1489 1487 1484 1484 1483 1482 1481 1480 1479 1478 1476 1475 1474 1473 1470
1527 1525 1524 1522 1521 1520 1520 1519 1516 1513 1512 1510 1507 1506 1505 1503 1501 1500 1499 1498 1496 1495 1493 1492 1491 1489 1487 1486 1485 1483 1481 1480 1479 1478 1478 1477 1477 1476 1475 1473 1472 1471 1470
1524 1522 1520 1519 1517 1516 1515 1514 1511 1508 1507 1505 1503 1502 1501 1499 1498 1496 1495 1494 1493 1492 1490 1489 1488 1486 1484 1483 1482 1480 1479 1477 1476 1475 1474 1474 1473 1473 1472 1471 1470 1469 1468
1520 1518 1517 1515 1514 1513 1512 1509 1507 1504 1502 1500 1499 1497 1496 1495 1493 1492 1492 1490 1490 1489 1488 1486 1484 1483 1482 1481 1480 1478 1477 1475 1473 1471 1470 1469 1469 1468 1467 1467 1466 1465 1464
1519 1517 1514 1513 1511 1510 1508 1506 1503 1501 1498 1496 1494 1492 1491 1490 1489 1488 1487 1486 1485 1485 1484 1482 1481 1480 1479 1478 1477 1475 1474 1472 1470 1468 1467 1466 1465 1464 1463 1462 1461 1460 1459
1519 1517 1515 1513 1512 1510 1507 1504 1501 1498 1495 1492 1489 1486 1485 1484 1483 1483 1482 1482 1481 1480 1479 1478 1477 1477 1476 1475 1474 1472 1470 1469 1467 1465 1463 1462 1462 1461 1460 1459 1457 1456 1455
1518 1516 1513 1511 1508 1505 1502 1499 1497 1494 1491 1488 1485 1482 1480 1478 1477 1476 1477 1476 1476 1475 1475 1474 1473 1472 1471 1471 1469 1468 1467 1465 1464 1463 1461 1459 1458 1457 1456 1454 1454 1453 1452
1516 1513 1510 1507 1504 1500 1497 1494 1492 1489 1486 1483 1481 1478 1475 1473 1472 1471 1470 1470 1470 1470 1469 1469 1468 1467 1466 1466 1464 1463 1462 1461 1459 1458 1457 1456 1454 1453 1452 1451 1450 1449 1448
1514 1510 1506 1503 1500 1496 1492 1488 1485 1483 1480 1478 1475 1473 1470 1468 1467 1465 1464 1464 1464 1464 1463 1463 1462 1461 1461 1460 1459 1458 1456 1455 1454 1453 1452 1451 1450 1449 1448 1446 1445 1444 1443
1510 1507 1503 1499 1495 1491 1487 1482 1479 1477 1473 1471 1469 1467 1465 1463 1461 1460 1459 1458 1457 1457 1457 1457 1456 1455 1455 1454 1453 1452 1450 1449 1449 1448 1447 1445 1445 1444 1442 1441 1440 1440 1439
1508 1504 1500 1496 1491 1486 1482 1477 1474 1471 1468 1465 1462 1461 1459 1457 1456 1454 1453 1452 1451 1450 1450 1449 1449 1448 1448 1448 1447 1445 1444 1443 1442 1442 1441 1439 1438 1438 1437 1436 1435 1435 1434
1505 1501 1497 1493 1488 1483 1478 1473 1469 1466 1462 1459 1457 1455 1453 1452 1451 1449 1447 1446 1444 1443 1443 1442 1441 1440 1439 1440 1439 1438 1436 1435 1435 1435 1434 1433 1432 1432 1431 1430 1430 1429 1430
1502 1498 1494 1490 1485 1480 1475 1470 1466 1461 1458 1455 1452 1450 1448 1447 1445 1443 1442 1440 1439 1437 1436 1434 1434 1433 1432 1432 1431 1430 1427 1426 1426 1426 1426 1426 1425 1424 1424 1424 1423 1423 1423
1497 1494 1490 1487 1483 1478 1473 1467 1463 1458 1454 1450 1448 1446 1444 1442 1440 1438 1436 1434 1431 1429 1428 1426 1425 1425 1424 1423 1422 1422 1420 1419 1417 1417 1418 1419 1418 1417 1417 1416 1416 1416 1416
1495 1492 1488 1484 1481 1476 1471 1464 1460 1455 1450 1447 1444 1441 1439 1437 1434 1431 1428 1426 1424 1421 1420 1419 1417 1416 1417 1416 1415 1414 1413 1411 1409 1409 1410 1410 1410 1410 1410 1410 1410 1410 1409
1492 1489 1485 1481 1476 1473 1469 1464 1458 1452 1448 1444 1440 1437 1433 1430 1428 1426 1423 1420 1418 1415 1413 1411 1410 1409 1408 1408 1408 1406 1405 1405 1404 1403 1402 1402 1402 1402 1402 1402 1402 1402 1402
1490 1487 1483 1479 1474 1469 1465 1460 1455 1450 1445 1441 1437 1433 1430 1426 1424 1421 1418 1416 1414 1411 1409 1408 1405 1403 1402 1402 1401 1400 1400 1398 1398 1397 1395 1396 1395 1395 1395 1395 1396 1396 1395
1487 1483 1480 1476 1472 1468 1463 1458 1453 1448 1442 1437 1433 1430 1426 1423 1420 1416 1414 1413 1410 1408 1406 1404 1402 1401 1399 1397 1397 1396 1395 1394 1392 1390 1388 1388 1389 1388 1388 1388 1388 1389 1389
Wind_Speed
15 16 16 17 18 18 16 14 14 16 16 17 18 19 20 22 23 25 24 22 20 18 14 11 7 8 8 9 11 12 13 13 17 20 21 12 13 6 5 11 12 11 12
19 15 15 14 15 15 14 13 14 16 16 16 18 20 22 24 25 22 19 17 14 11 8 6 4 5 5 7 9 12 15 15 16 19 16 11 7 3 18 11 16 13 16
17 14 13 13 14 14 12 12 14 15 15 16 18 20 21 22 22 18 15 13 11 8 7 6 4 5 6 8 10 12 15 17 15 14 10 6 5 25 16 21 20 15 11
6 9 11 12 11 9 10 13 14 13 14 17 19 20 21 22 19 18 15 10 9 8 6 6 6 7 8 9 11 12 13 13 14 13 11 9 10 6 13 24 23 18 15
5 3 3 4 5 7 9 12 13 13 15 17 19 20 20 20 18 17 15 8 7 8 8 9 9 9 9 9 11 10 10 11 11 12 13 11 9 10 15 19 28 24 17
5 4 1 2 4 7 10 12 14 15 17 18 19 20 19 18 16 14 15 10 7 7 8 9 10 11 9 10 10 9 9 10 9 10 10 11 13 13 13 19 22 22 21
7 6 4 5 8 10 10 12 14 16 18 20 19 19 18 17 15 13 13 12 10 10 9 9 11 11 10 9 10 10 8 9 8 8 8 9 11 12 13 13 17 19 19
7 7 8 11 12 8 7 13 16 17 18 20 19 19 17 17 15 14 14 14 13 12 11 12 11 8 10 11 13 12 9 8 8 8 8 7 10 11 10 12 14 17 15
12 11 12 14 12 11 13 18 21 22 21 20 19 19 18 16 16 15 15 14 14 14 14 14 13 11 12 12 13 12 11 9 9 8 9 8 8 10 10 10 10 10 8
13 13 13 14 15 17 20 23 26 27 23 23 19 18 18 18 16 16 14 15 14 14 13 12 12 11 11 12 12 11 11 10 10 11 10 10 10 10 10 10 9 7 10
18 18 14 16 17 17 19 22 23 23 21 22 18 17 17 18 18 18 16 14 13 13 12 11 10 10 10 10 10 11 11 11 10 11 11 11 12 12 12 12 11 9 8
22 19 17 15 12 13 17 20 20 19 18 16 17 19 20 20 19 18 17 15 15 14 13 12 11 10 10 11 11 11 11 13 12 9 10 10 12 14 14 15 14 14 13
16 14 14 13 14 14 15 15 15 16 17 18 21 23 23 22 20 19 19 18 16 16 14 14 13 12 12 12 13 13 12 13 12 10 10 10 10 11 12 13 14 14 16
14 17 18 18 18 18 19 19 18 18 18 18 20 21 21 21 21 21 20 19 18 18 16 16 15 15 14 13 14 14 13 13 12 12 11 10 11 12 13 14 13 14 14
12 19 24 25 25 25 24 22 21 20 21 21 21 20 19 20 22 21 20 20 20 19 18 18 17 17 17 15 16 15 15 15 14 13 13 12 13 13 12 13 12 12 11
17 25 29 30 28 28 27 25 22 22 23 24 23 20 19 19 20 21 20 21 21 20 20 20 19 19 18 18 18 18 17 16 16 15 14 15 15 14 14 14 13 12 13
23 31 33 33 31 30 28 27 25 25 26 26 25 22 21 20 19 19 21 21 21 21 21 21 21 21 20 19 20 20 20 20 18 18 17 17 17 16 16 16 19 15 15
29 31 30 30 29 28 27 27 26 25 25 25 25 22 22 21 20 20 20 20 21 22 22 22 22 23 22 21 21 22 22 22 21 20 19 20 18 18 18 18 18 16 16
24 24 24 25 26 26 25 26 25 25 25 23 20 19 21 22 21 22 20 20 22 22 23 23 24 25 24 23 23 24 24 25 24 22 21 22 20 18 19 20 18 17 17
21 23 23 24 24 24 24 25 25 24 22 22 22 21 20 21 21 20 20 21 22 24 24 25 26 26 27 25 25 25 27 27 26 24 23 23 22 20 19 21 19 20 15
20 21 22 23 25 26 26 25 25 24 22 23 22 20 20 18 19 20 21 23 25 27 27 29 28 29 29 28 27 27 29 29 28 27 25 22 22 22 21 21 21 19 18
21 22 24 25 24 25 27 28 26 26 24 22 21 19 19 20 21 24 24 25 26 28 28 29 29 28 27 27 26 27 28 28 30 29 26 22 22 23 22 22 22 20 21
21 22 24 26 27 27 27 29 28 28 28 25 22 22 23 24 26 27 26 26 25 25 25 26 27 27 23 24 24 24 25 25 28 28 25 24 24 25 24 24 23 23 24
22 23 25 27 29 30 29 30 31 29 27 26 25 24 24 24 22 22 22 22 21 21 21 22 22 21 20 19 19 21 22 23 24 25 26 25 25 26 26 26 26 26 25
20 22 24 26 29 30 31 32 33 31 30 27 25 23 22 22 21 19 19 19 18 18 19 18 18 18 18 14 15 17 19 20 21 22 25 26 26 27 28 28 28 27 27
21 23 25 25 26 28 29 29 31 33 31 30 27 25 24 22 21 21 18 13 14 14 14 14 16 15 16 16 15 16 17 18 19 23 27 27 27 28 28 29 29 29 30
Wind_Direction
266 259 256 258 262 265 268 283 302 310 311 310 311 310 313 315 316 317 317 315 314 314 320 325 316 305 310 313 321 326 327 337 337 335 335 349 341 275 312 314 308 306 283
271 272 261 261 265 261 262 285 302 308 310 311 315 317 319 321 322 322 322 322 323 325 333 347 345 325 324 326 327 335 339 344 352 351 355 346 12 115 328 347 328 311 304
274 264 261 264 258 258 271 287 304 309 309 314 317 318 319 320 319 317 314 311 315 321 321 323 324 318 326 336 339 338 340 346 360 0 7 345 334 335 344 0 350 333 329
284 261 259 258 261 267 272 296 305 308 312 316 317 318 321 322 319 318 317 300 306 313 312 310 309 312 321 328 327 331 343 344 351 360 1 348 333 334 329 355 351 349 336
9 344 293 254 248 260 284 299 302 305 308 312 314 317 319 319 316 316 320 299 294 294 291 295 301 301 307 316 318 334 332 334 341 345 351 356 358 6 339 331 342 352 4
5 356 349 270 272 284 299 300 301 304 305 306 310 313 316 316 313 315 318 309 304 290 287 289 289 294 303 306 322 319 319 325 327 338 345 345 347 344 337 323 331 338 350
350 338 311 298 297 302 307 313 315 313 301 300 304 307 311 311 307 310 312 314 311 309 300 287 283 286 297 301 302 310 304 313 312 318 332 337 340 331 325 318 321 334 348
334 315 300 299 299 298 319 329 328 325 314 298 299 300 304 306 302 300 303 313 312 315 316 308 307 317 307 295 295 301 286 291 305 303 313 323 343 340 329 316 316 325 340
354 328 309 304 291 281 300 313 317 318 316 306 296 300 299 300 299 295 296 301 304 308 303 299 304 311 307 296 289 294 298 274 283 293 297 299 321 330 334 324 311 304 310
350 338 323 311 298 287 293 303 307 306 303 309 296 298 303 301 294 290 295 298 301 302 300 301 302 308 310 308 299 299 300 292 273 278 285 285 293 304 310 323 324 305 286
346 342 335 338 305 289 295 303 307 301 298 303 290 292 299 300 298 294 291 293 294 299 302 300 300 308 309 307 305 309 306 300 291 276 277 280 285 286 286 289 298 300 292
337 327 322 326 337 325 314 311 313 308 307 299 290 292 293 295 293 292 289 287 288 290 294 295 299 302 302 302 305 311 316 319 307 293 283 283 283 282 280 278 281 283 285
5 14 13 7 357 347 339 336 333 322 313 305 297 290 287 286 288 287 286 283 282 284 284 289 292 294 293 296 299 303 306 314 315 303 297 297 301 302 302 300 294 285 278
24 16 7 357 346 336 328 322 320 321 319 317 313 306 292 282 280 281 281 282 280 281 282 282 284 288 287 291 293 297 301 302 309 308 298 294 292 291 294 295 301 299 294
0 356 350 341 332 326 322 318 314 312 312 313 310 310 303 281 276 277 277 278 278 280 280 280 282 284 285 287 287 289 290 294 298 300 298 297 293 298 296 295 296 294 298
340 340 338 335 330 327 323 317 308 305 307 310 309 305 300 294 284 278 274 273 277 279 280 281 281 280 283 283 284 288 287 286 289 291 290 289 288 290 290 291 288 288 283
331 330 329 326 322 318 315 309 305 303 302 302 305 298 303 295 292 285 278 277 277 276 278 279 280 282 281 281 282 283 285 286 286 287 287 285 283 283 283 284 286 291 282
326 324 324 324 324 323 320 310 304 302 302 305 304 299 295 297 287 282 283 281 277 276 278 279 280 280 281 281 280 280 280 282 283 283 283 283 281 279 279 281 281 282 283
326 328 330 329 330 330 324 319 314 308 308 308 305 299 296 294 291 286 284 282 278 277 278 278 277 278 279 278 278 279 279 280 282 281 280 281 280 279 275 276 278 274 276
341 342 344 344 342 340 333 327 323 319 314 309 307 304 302 298 296 294 287 282 280 279 276 276 277 278 278 277 276 275 276 276 278 278 278 278 279 276 272 272 274 273 278
346 346 349 353 353 348 343 338 331 328 316 310 310 308 302 298 296 294 294 292 288 285 283 283 282 280 279 278 275 273 274 276 277 276 275 275 274 272 271 271 270 274 270
356 357 357 -0 358 354 350 348 344 335 327 319 313 309 302 298 296 297 302 299 293 288 286 285 285 285 283 280 276 274 273 274 273 275 276 274 269 268 268 268 271 269 267
355 355 353 352 360 1 357 348 347 341 338 332 321 311 304 302 300 298 297 296 296 295 293 291 293 293 289 281 279 278 276 273 272 276 275 271 265 264 265 267 269 266 266
347 346 346 345 348 351 355 353 346 340 339 335 331 324 315 312 310 306 304 302 302 299 296 296 298 299 296 293 289 281 276 274 273 277 277 272 267 262 263 262 265 268 268
344 344 344 342 342 343 345 347 345 342 337 334 335 331 325 322 319 317 314 311 310 306 304 305 303 304 303 307 296 289 283 281 281 278 273 274 273 271 269 268 267 267 267
344 340 339 339 337 337 340 338 337 339 338 331 331 328 323 319 316 316 316 315 312 313 316 315 312 311 309 310 307 300 294 289 287 282 282 282 280 278 278 276 275 273 271